Location: Bamobli
(6.6379°N, 10.9396°W)
Time: 00:10:45
(UTC+00:00)

N. Korean satellite - Pass Details

Date: 08 March 2021
Orbit: 453 x 499 km, 97.2° (Epoch: 11 April)

Event Time Altitude Azimuth Distance (km) Brightness Sun altitude
Rises 04:55:25 0° 45° (NE) 2,559 10.8 -30.1°
Reaches altitude 10° 04:58:44 10° 79° (ENE) 1,688 10.2 -29.3°
Maximum altitude 05:00:03 12° 100° (E) 1,591 10.1 -28.9°
Drops below altitude 10° 05:01:22 10° 121° (ESE) 1,694 10.0 -28.6°
Sets 05:04:41 0° 155° (SSE) 2,583 10.6 -27.8°
